DW4657 Weather Reports


Display with metric or nautical units.
time (UTC)temp
F
wind
direction
speed
MPH
gust
MPH
rain 1hr
in
rain 24hr
in
rain mn
in
humidity
%
barometer
mb
20181019005035 34 253 0.0 0.0 0.00 0.00 0.00 72 1025.9
20181019004035 35 252 0.0 0.0 0.00 0.00 0.00 69 1025.9
20181019003035 35 254 0.0 0.0 0.00 0.00 0.00 69 1025.7
20181019002035 35 255 0.0 0.0 0.00 0.00 0.00 71 1025.6
20181019001035 35 255 0.0 0.0 0.00 0.00 0.00 72 1025.6
20181019000035 35 251 0.0 0.0 0.00 0.00 0.00 70 1025.7
20181018235035 36 228 0.0 0.0 0.00 0.00 0.00 69 1025.5
20181018234035 37 228 0.0 0.0 0.00 0.00 0.00 67 1025.4
20181018233035 37 228 0.0 0.0 0.00 0.00 0.00 63 1025.3
20181018232035 38 228 0.0 0.0 0.00 0.00 0.00 59 1025.3
20181018231035 38 231 0.0 0.0 0.00 0.00 0.00 56 1025.3
20181018230035 39 177 0.0 0.0 0.00 0.00 0.00 57 1025.2
20181018225035 39 308 0.0 1.0 0.00 0.00 0.00 54 1025.2
20181018224035 39 90 0.0 1.0 0.00 0.00 0.00 57 1025.1
20181018223035 40 308 0.0 0.0 0.00 0.00 0.00 55 1024.9
20181018222035 40 308 0.0 0.0 0.00 0.00 0.00 56 1024.6
20181018221035 41 309 0.0 1.0 0.00 0.00 0.00 48 1024.6
20181018220035 42 309 0.0 1.0 0.00 0.02 0.00 47 1024.6
20181018215036 43 304 0.0 1.0 0.00 0.02 0.00 44 1024.5
20181018214035 43 309 0.0 2.0 0.00 0.02 0.00 42 1024.3
20181018213035 44 327 1.0 3.0 0.00 0.02 0.00 43 1024.2
20181018212035 44 319 1.0 6.0 0.00 0.02 0.00 41 1023.9
20181018211035 45 274 2.0 8.0 0.00 0.02 0.00 39 1023.8
20181018210035 45 301 0.0 5.0 0.00 0.02 0.00 41 1023.6
20181018205035 46 348 2.0 5.0 0.00 0.02 0.00 38 1023.5
20181018204035 47 355 0.0 7.0 0.00 0.02 0.00 35 1023.3
20181018203035 48 4 2.0 6.0 0.00 0.02 0.00 33 1023.4
20181018202035 48 300 1.0 5.0 0.00 0.02 0.00 32 1023.4
20181018201035 48 341 2.0 9.0 0.00 0.02 0.00 32 1023.4
20181018200035 48 291 1.0 7.0 0.00 0.02 0.00 33 1023.5
20181018195035 48 309 1.0 6.0 0.00 0.02 0.00 34 1023.3
20181018194035 48 343 2.0 6.0 0.00 0.02 0.00 32 1023.3
20181018193035 48 343 4.0 6.0 0.00 0.02 0.00 31 1023.2
20181018192035 48 322 4.0 7.0 0.00 0.02 0.00 32 1023.2
20181018191035 48 344 2.0 6.0 0.00 0.02 0.00 34 1023.3
20181018190035 48 345 3.0 7.0 0.00 0.02 0.00 30 1023.3
20181018185035 48 317 2.0 6.0 0.00 0.02 0.00 34 1023.3
20181018184035 49 12 3.0 4.0 0.00 0.02 0.00 33 1023.4
20181018183035 48 12 2.0 6.0 0.00 0.02 0.00 34 1023.2
20181018182035 47 347 4.0 5.0 0.00 0.02 0.00 31 1023.4
20181018181035 47 322 2.0 7.0 0.00 0.02 0.00 32 1023.3
20181018180035 47 313 4.0 8.0 0.00 0.02 0.00 35 1023.4
20181018175035 47 322 1.0 9.0 0.00 0.02 0.00 35 1023.4
20181018174035 47 333 1.0 7.0 0.00 0.02 0.00 38 1023.5
20181018173035 46 286 3.0 7.0 0.00 0.02 0.00 34 1023.5
20181018172035 47 251 3.0 6.0 0.00 0.02 0.00 36 1023.6
20181018171035 47 312 2.0 8.0 0.00 0.02 0.00 36 1023.4
20181018170035 47 68 0.0 5.0 0.00 0.02 0.00 38 1023.3
20181018165035 46 268 1.0 7.0 0.00 0.02 0.00 39 1023.3
20181018164035 45 305 2.0 11.0 0.00 0.02 0.00 38 1023.5
20181018163035 45 336 5.0 7.0 0.00 0.02 0.00 37 1023.6
20181018162035 45 315 2.0 7.0 0.00 0.02 0.00 39 1023.7
20181018161035 44 334 2.0 10.0 0.00 0.02 0.00 38 1023.7
20181018160035 44 289 2.0 6.0 0.00 0.02 0.00 39 1023.5
20181018155035 45 310 2.0 5.0 0.00 0.02 0.00 44 1023.6
20181018154035 44 352 2.0 8.0 0.00 0.02 0.00 42 1023.6
20181018153034 43 294 1.0 9.0 0.00 0.02 0.00 42 1023.6
20181018152035 43 329 2.0 9.0 0.00 0.02 0.00 42 1023.7
20181018151035 43 338 1.0 5.0 0.00 0.02 0.00 42 1023.8
20181018150035 43 3 2.0 5.0 0.00 0.02 0.00 44 1023.8
20181018145034 42 1 3.0 14.0 0.00 0.02 0.00 43 1024.1
20181018144035 42 324 6.0 6.0 0.00 0.02 0.00 45 1024.2
20181018143035 42 327 3.0 7.0 0.00 0.02 0.00 44 1024.1
20181018142034 41 61 1.0 7.0 0.00 0.02 0.00 46 1024.0
20181018141034 41 325 0.0 7.0 0.00 0.02 0.00 49 1024.0
20181018140034 41 327 3.0 11.0 0.00 0.02 0.00 44 1023.9
20181018135034 40 4 1.0 7.0 0.00 0.02 0.00 48 1023.7
20181018134035 40 354 2.0 5.0 0.00 0.02 0.00 47 1023.6
20181018133035 40 23 1.0 6.0 0.00 0.02 0.00 50 1023.5
20181018132034 39 351 2.0 14.0 0.00 0.02 0.00 46 1023.5
20181018131034 40 344 3.0 6.0 0.00 0.02 0.00 50 1023.6
20181018130034 40 336 2.0 6.0 0.00 0.02 0.00 50 1023.4
20181018125034 39 326 2.0 4.0 0.00 0.02 0.00 52 1023.4
20181018124036 39 337 1.0 7.0 0.00 0.02 0.00 50 1023.3
20181018123034 39 317 3.0 9.0 0.00 0.02 0.00 50 1023.2
20181018122034 39 308 2.0 3.0 0.00 0.02 0.00 52 1023.0
20181018121034 38 332 1.0 7.0 0.00 0.02 0.00 54 1022.6
20181018120034 38 31 0.0 6.0 0.00 0.02 0.00 55 1022.4
20181018115034 38 336 1.0 5.0 0.00 0.02 0.00 57 1022.0
20181018114034 38 64 2.0 5.0 0.00 0.02 0.00 57 1021.8
20181018113034 37 341 2.0 7.0 0.00 0.02 0.00 58 1021.7
20181018112034 36 344 3.0 5.0 0.00 0.02 0.00 60 1021.5
20181018111034 36 3 2.0 4.0 0.00 0.02 0.00 60 1021.3
20181018110035 36 349 3.0 5.0 0.00 0.02 0.00 60 1021.1
20181018105034 36 360 0.0 5.0 0.00 0.02 0.00 61 1020.9
20181018104034 37 347 0.0 4.0 0.00 0.02 0.00 61 1020.7
20181018103034 37 317 2.0 5.0 0.00 0.02 0.00 61 1020.5
20181018102034 37 357 0.0 5.0 0.00 0.02 0.00 61 1020.3
20181018101034 37 163 2.0 7.0 0.00 0.02 0.00 61 1020.0
20181018100034 37 281 0.0 4.0 0.00 0.02 0.00 64 1019.9
20181018095034 37 327 2.0 3.0 0.00 0.02 0.00 66 1019.7
20181018094036 37 289 0.0 2.0 0.00 0.02 0.00 69 1019.6
20181018093034 38 348 0.0 2.0 0.00 0.02 0.00 63 1019.5
20181018092034 38 308 2.0 4.0 0.00 0.02 0.00 62 1019.3
20181018091034 38 20 1.0 4.0 0.00 0.02 0.00 59 1019.3
20181018090034 38 311 0.0 9.0 0.00 0.02 0.00 58 1019.2
20181018085034 39 21 0.0 6.0 0.00 0.02 0.00 58 1019.0
20181018084034 39 331 0.0 9.0 0.00 0.02 0.00 58 1018.7
20181018083034 39 321 6.0 7.0 0.00 0.02 0.00 59 1018.6
20181018082034 39 60 2.0 8.0 0.00 0.02 0.00 61 1018.4
20181018081034 39 348 0.0 7.0 0.00 0.02 0.00 62 1018.2
20181018080034 38 33 0.0 8.0 0.00 0.02 0.00 68 1018.1
20181018075035 38 336 7.0 8.0 0.00 0.02 0.00 73 1018.1
20181018074034 37 12 0.0 3.0 0.00 0.02 0.00 82 1017.9
20181018073034 37 246 0.0 1.0 0.00 0.02 0.00 86 1017.7
20181018072034 38 310 0.0 2.0 0.00 0.02 0.00 84 1017.9
20181018071034 38 315 1.0 2.0 0.00 0.02 0.00 84 1017.8
20181018070034 38 8 0.0 2.0 0.00 0.02 0.00 83 1017.7
20181018065034 39 331 0.0 3.0 0.00 0.02 0.00 81 1017.4
20181018064034 39 325 0.0 6.0 0.00 0.02 0.00 79 1017.3
20181018063034 41 345 3.0 5.0 0.00 0.02 0.00 74 1017.4
20181018062034 41 336 2.0 6.0 0.00 0.02 0.00 72 1017.0
20181018061034 41 45 0.0 7.0 0.00 0.02 0.00 73 1016.8
20181018060034 41 312 0.0 5.0 0.00 0.02 0.00 73 1016.7
20181018055034 41 274 0.0 9.0 0.00 0.02 0.00 74 1016.5
20181018054034 41 21 1.0 6.0 0.00 0.02 0.00 74 1016.5
20181018053034 41 175 0.0 7.0 0.00 0.02 0.00 73 1016.2
20181018052034 41 245 4.0 5.0 0.00 0.02 0.00 75 1016.1
20181018051034 41 331 2.0 4.0 0.00 0.02 0.00 76 1015.8
20181018050034 42 1 0.0 7.0 0.00 0.02 0.00 77 1015.7
20181018045034 42 312 0.0 6.0 0.00 0.02 0.00 77 1015.6
20181018044034 42 149 1.0 4.0 0.00 0.02 0.00 76 1015.7
20181018043034 42 221 4.0 4.0 0.00 0.02 0.00 76 1015.6
20181018042034 42 151 0.0 5.0 0.00 0.02 0.00 77 1015.7
20181018041034 42 287 0.0 5.0 0.00 0.02 0.00 77 1015.5
20181018040034 43 286 3.0 6.0 0.00 0.02 0.00 77 1015.6
20181018035034 43 327 0.0 7.0 0.00 0.02 0.02 77 1015.2
20181018034034 43 351 2.0 3.0 0.00 0.02 0.02 78 1015.2
20181018033034 43 331 0.0 4.0 0.00 0.02 0.02 79 1015.1
20181018032034 43 328 1.0 3.0 0.00 0.02 0.02 82 1015.2
20181018031034 43 312 0.0 4.0 0.00 0.02 0.02 82 1014.8
20181018030034 43 37 0.0 2.0 0.00 0.02 0.02 83 1014.7
20181018025034 43 288 0.0 4.0 0.00 0.02 0.02 82 1014.6
20181018024033 43 324 0.0 3.0 0.00 0.02 0.02 83 1014.5
20181018023033 44 303 1.0 8.0 0.00 0.02 0.02 83 1014.5
20181018022034 44 327 2.0 5.0 0.00 0.02 0.02 84 1014.4
20181018021034 44 355 1.0 7.0 0.00 0.02 0.02 85 1014.3
20181018020034 44 51 4.0 4.0 0.00 0.02 0.02 84 1014.0
20181018015033 44 326 0.0 5.0 0.00 0.02 0.02 85 1013.9
20181018014033 44 259 0.0 4.0 0.00 0.02 0.02 86 1013.8
20181018013034 44 323 0.0 3.0 0.00 0.02 0.02 84 1013.7
20181018012034 44 313 1.0 2.0 0.00 0.02 0.02 85 1013.5
20181018011033 44 305 1.0 5.0 0.00 0.02 0.02 85 1013.3
20181018010034 44 280 0.0 5.0 0.00 0.02 0.02 87 1013.1